{"data":{"norad_id":52692,"epoch":"2026-05-25T01:41:39.712128Z","epoch_age_seconds":66087,"freshness":"FRESH","line1":"1 52692U 22053AN  26145.07059852 -.00002966  00000+0 -16831-3 0  9996","line2":"2 52692  53.2131 160.9627 0000985  81.4972 278.6132 15.08846813222688","mean_motion":15.08846813,"eccentricity":9.85e-5,"inclination_deg":53.2131,"raan_deg":160.9627,"arg_perigee_deg":81.4972,"mean_anomaly_deg":278.6132,"bstar":-0.00016831,"rev_number":22268,"period_min":95.437123741998,"perigee_km":539.04115525995,"apogee_km":540.40397359414,"semimajor_km":6917.859564427,"source":"CELESTRAK","updated_at":"2026-05-25T13:38:17.236618Z"}}